• In Hungary
  • List of Countries
  • For 7 days
  • Water Temperature
  • Satellite Maps
  • Weather Map
  • News
  • Weather Widgets
  • user-avatar
    Login

    Hourly Weather Imphal

    Today, 18 August, Friday

    Time Temperature Precipitation Wind Pressure Humidity
    00:00 +21°C° 0 mm 0 mps 687 mmHg 97%
    01:00 +21°C° 0.2 mm 0 mps 687 mmHg 97%
    02:00 +21°C° 0.2 mm 0 mps 687 mmHg 97%
    03:00 +21°C° 0.2 mm 0 mps 687 mmHg 97%
    04:00 +21°C° 0.3 mm 0 mps 687 mmHg 96%
    05:00 +21°C° 0.3 mm 0 mps 687 mmHg 96%
    06:00 +22°C° 0 mm 0 mps 688 mmHg 95%
    07:00 +24°C° 0.4 mm 0 mps 688 mmHg 90%
    08:00 +27°C° 0.4 mm 1 mps 688 mmHg 85%
    09:00 +28°C° 0.4 mm 1 mps 689 mmHg 79%
    10:00 +29°C° 0.5 mm 1 mps 689 mmHg 77%
    11:00 +30°C° 0.5 mm 1 mps 689 mmHg 75%
    12:00 +30°C° 0 mm 2 mps 689 mmHg 74%
    13:00 +30°C° 0.7 mm 1 mps 689 mmHg 75%
    14:00 +30°C° 0.7 mm 1 mps 688 mmHg 76%
    15:00 +30°C° 0.7 mm 1 mps 688 mmHg 77%
    16:00 +28°C° 0.5 mm 1 mps 688 mmHg 82%
    17:00 +27°C° 0.5 mm 1 mps 688 mmHg 86%
    18:00 +26°C° 0.5 mm 1 mps 688 mmHg 90%
    19:00 +25°C° 0.1 mm 1 mps 688 mmHg 92%
    20:00 +25°C° 0.1 mm 1 mps 689 mmHg 93%
    21:00 +24°C° 0.1 mm 1 mps 689 mmHg 95%
    22:00 +24°C° 0.1 mm 1 mps 689 mmHg 95%
    23:00 +21°C° 0.1 mm 0 mps 689 mmHg 95%

    Tomorrow, 19 August, Saturday

    Time Temperature Precipitation Wind Pressure Humidity
    00:00 +21°C° 0.1 mm 0 mps 689 mmHg 95%
    01:00 +21°C° 0 mm 0 mps 689 mmHg 95%
    02:00 +21°C° 0 mm 0 mps 689 mmHg 95%
    03:00 +20°C° 0 mm 0 mps 689 mmHg 95%
    04:00 +20°C° 0 mm 0 mps 689 mmHg 95%
    05:00 +23°C° 0 mm 1 mps 689 mmHg 95%
    06:00 +23°C° 0 mm 1 mps 689 mmHg 94%
    07:00 +25°C° 0 mm 1 mps 690 mmHg 86%
    08:00 +27°C° 0 mm 1 mps 691 mmHg 78%
    09:00 +29°C° 0 mm 1 mps 691 mmHg 70%
    10:00 +30°C° 0.2 mm 1 mps 691 mmHg 68%
    11:00 +31°C° 0.2 mm 1 mps 691 mmHg 67%
    12:00 +31°C° 0.2 mm 1 mps 691 mmHg 65%
    13:00 +31°C° 0.4 mm 1 mps 690 mmHg 66%
    14:00 +31°C° 0.4 mm 1 mps 689 mmHg 68%
    15:00 +31°C° 0.4 mm 1 mps 688 mmHg 69%
    16:00 +30°C° 0.3 mm 1 mps 688 mmHg 75%
    17:00 +28°C° 0.3 mm 1 mps 688 mmHg 81%
    18:00 +27°C° 0.3 mm 1 mps 688 mmHg 87%
    19:00 +26°C° 0.3 mm 1 mps 688 mmHg 89%
    20:00 +23°C° 0.3 mm 0 mps 689 mmHg 92%
    21:00 +22°C° 0.3 mm 0 mps 690 mmHg 95%
    22:00 +22°C° 0.3 mm 0 mps 690 mmHg 95%
    23:00 +22°C° 0.3 mm 0 mps 690 mmHg 95%

    Day after tomorrow, 20 August, Sunday

    Time Temperature Precipitation Wind Pressure Humidity
    00:00 +21°C° 0.3 mm 0 mps 690 mmHg 96%
    01:00 +21°C° 0.1 mm 0 mps 689 mmHg 96%
    02:00 +21°C° 0.1 mm 0 mps 689 mmHg 96%
    03:00 +21°C° 0.1 mm 0 mps 689 mmHg 96%
    04:00 +21°C° 0 mm 0 mps 689 mmHg 96%
    05:00 +21°C° 0 mm 0 mps 689 mmHg 95%
    06:00 +21°C° 0 mm 0 mps 689 mmHg 94%
    07:00 +24°C° 0 mm 0 mps 690 mmHg 86%
    08:00 +26°C° 0 mm 0 mps 690 mmHg 77%
    09:00 +28°C° 0 mm 0 mps 691 mmHg 69%
    10:00 +31°C° 0.4 mm 1 mps 690 mmHg 65%
    11:00 +32°C° 0.4 mm 1 mps 690 mmHg 62%
    12:00 +33°C° 0.4 mm 1 mps 689 mmHg 59%
    13:00 +33°C° 0.7 mm 1 mps 689 mmHg 60%
    14:00 +32°C° 0.7 mm 1 mps 688 mmHg 62%
    15:00 +32°C° 0.7 mm 1 mps 687 mmHg 63%
    16:00 +31°C° 0.6 mm 1 mps 687 mmHg 71%
    17:00 +29°C° 0.6 mm 1 mps 686 mmHg 78%
    18:00 +25°C° 0.6 mm 0 mps 686 mmHg 85%
    19:00 +25°C° 0.6 mm 0 mps 687 mmHg 88%
    20:00 +24°C° 0.6 mm 0 mps 688 mmHg 90%
    21:00 +23°C° 0.6 mm 0 mps 688 mmHg 92%
    22:00 +23°C° 0.4 mm 0 mps 688 mmHg 93%
    23:00 +22°C° 0.4 mm 0 mps 688 mmHg 94%

    21 August, Monday

    Time Temperature Precipitation Wind Pressure Humidity
    00:00 +22°C° 0.4 mm 0 mps 688 mmHg 95%
    01:00 +22°C° 0.4 mm 0 mps 688 mmHg 96%
    02:00 +22°C° 0.4 mm 0 mps 687 mmHg 96%
    03:00 +22°C° 0.4 mm 0 mps 687 mmHg 97%
    04:00 +22°C° 0.5 mm 0 mps 687 mmHg 96%
    05:00 +22°C° 0.5 mm 0 mps 688 mmHg 95%
    06:00 +22°C° 0.5 mm 0 mps 688 mmHg 95%
    07:00 +24°C° 0.3 mm 0 mps 688 mmHg 89%
    08:00 +25°C° 0.3 mm 0 mps 689 mmHg 84%
    09:00 +27°C° 0.3 mm 0 mps 689 mmHg 78%
    10:00 +28°C° 0.3 mm 0 mps 689 mmHg 73%
    11:00 +31°C° 0.3 mm 1 mps 689 mmHg 67%
    12:00 +32°C° 0.3 mm 1 mps 688 mmHg 62%
    13:00 +32°C° 0.8 mm 1 mps 688 mmHg 64%
    14:00 +32°C° 0.8 mm 1 mps 687 mmHg 65%
    15:00 +32°C° 0.8 mm 1 mps 686 mmHg 67%
    16:00 +30°C° 0.5 mm 1 mps 686 mmHg 73%
    17:00 +29°C° 0.5 mm 1 mps 686 mmHg 79%
    18:00 +25°C° 0.5 mm 0 mps 686 mmHg 85%
    19:00 +24°C° 0.6 mm 0 mps 686 mmHg 88%
    20:00 +24°C° 0.6 mm 0 mps 687 mmHg 90%
    21:00 +23°C° 0.6 mm 0 mps 687 mmHg 93%
    22:00 +22°C° 0.4 mm 0 mps 687 mmHg 93%
    23:00 +22°C° 0.4 mm 0 mps 687 mmHg 94%

    22 August, Tuesday

    Time Temperature Precipitation Wind Pressure Humidity
    00:00 +22°C° 0.4 mm 0 mps 687 mmHg 94%
    01:00 +22°C° 0.2 mm 0 mps 687 mmHg 93%
    02:00 +22°C° 0.2 mm 0 mps 687 mmHg 93%
    03:00 +22°C° 0.2 mm 0 mps 687 mmHg 92%
    04:00 +22°C° 0.2 mm 0 mps 687 mmHg 92%
    05:00 +24°C° 0.2 mm 1 mps 688 mmHg 92%
    06:00 +23°C° 0.2 mm 1 mps 688 mmHg 93%
    07:00 +25°C° 0.1 mm 1 mps 689 mmHg 86%
    08:00 +27°C° 0.1 mm 1 mps 689 mmHg 79%
    09:00 +29°C° 0.1 mm 1 mps 690 mmHg 72%
    10:00 +30°C° 0.3 mm 1 mps 690 mmHg 70%
    11:00 +31°C° 0.3 mm 1 mps 689 mmHg 68%
    12:00 +31°C° 0.3 mm 1 mps 689 mmHg 65%
    13:00 +31°C° 0.4 mm 1 mps 688 mmHg 66%
    14:00 +31°C° 0.4 mm 1 mps 687 mmHg 67%
    15:00 +31°C° 0.4 mm 1 mps 687 mmHg 67%
    16:00 +30°C° 0 mm 1 mps 687 mmHg 72%
    17:00 +28°C° 0 mm 1 mps 687 mmHg 77%
    18:00 +27°C° 0 mm 1 mps 687 mmHg 82%
    19:00 +26°C° 0.2 mm 1 mps 687 mmHg 85%
    20:00 +25°C° 0.2 mm 1 mps 688 mmHg 88%
    21:00 +24°C° 0.2 mm 1 mps 689 mmHg 91%
    22:00 +24°C° 0.1 mm 1 mps 689 mmHg 92%
    23:00 +24°C° 0.1 mm 1 mps 689 mmHg 93%

    23 August, Wednesday

    Time Temperature Precipitation Wind Pressure Humidity
    00:00 +23°C° 0.1 mm 1 mps 689 mmHg 94%
    01:00 +23°C° 0 mm 1 mps 689 mmHg 93%
    02:00 +23°C° 0 mm 1 mps 689 mmHg 93%
    03:00 +23°C° 0 mm 1 mps 689 mmHg 93%
    04:00 +23°C° 0.1 mm 1 mps 689 mmHg 93%
    05:00 +23°C° 0.1 mm 1 mps 689 mmHg 93%
    06:00 +23°C° 0.1 mm 1 mps 690 mmHg 93%
    07:00 +25°C° 0 mm 1 mps 690 mmHg 83%
    08:00 +27°C° 0 mm 1 mps 691 mmHg 74%
    09:00 +30°C° 0 mm 1 mps 692 mmHg 65%
    10:00 +30°C° 0.1 mm 1 mps 691 mmHg 63%
    11:00 +31°C° 0.1 mm 1 mps 691 mmHg 60%
    12:00 +32°C° 0.1 mm 2 mps 690 mmHg 58%
    13:00 +32°C° 0.3 mm 1 mps 690 mmHg 59%
    14:00 +32°C° 0.3 mm 1 mps 689 mmHg 60%
    15:00 +32°C° 0.3 mm 1 mps 688 mmHg 61%
    16:00 +30°C° 0.5 mm 1 mps 688 mmHg 69%
    17:00 +29°C° 0.5 mm 1 mps 688 mmHg 77%
    18:00 +27°C° 0.5 mm 1 mps 688 mmHg 84%
    19:00 +24°C° 0.6 mm 0 mps 689 mmHg 88%
    20:00 +23°C° 0.6 mm 0 mps 689 mmHg 91%
    21:00 +22°C° 0.6 mm 0 mps 690 mmHg 94%
    22:00 +22°C° 0.5 mm 0 mps 690 mmHg 94%
    23:00 +22°C° 0.5 mm 0 mps 690 mmHg 95%
    Show more